Temp
2 2 2 2 2 2 2 2 3 4 5 5 5 5 4 4 4 4 4 4 4 4 4 4 4 4 5 5 5 5 5 5 6 6 5 5 5 6 6 6 6 6 7 7 7 7 7 7 7 7 8 8
2 2 3 3 3 3 3 3 4 4 4 4 4 4 4 4 4 4 4 4 4 4 4 4 4 4 5 5 5 5 5 5 6 6 5 5 5 5 5 6 6 6 6 6 6 7 7 7 7 7 7 7
4 3 4 4 4 4 4 4 4 4 4 4 4 4 4 4 4 4 4 4 4 4 4 4 4 4 4 5 5 5 5 5 5 5 5 5 5 5 5 5 5 5 5 5 6 6 6 6 6 6 6 7
4 3 3 3 4 4 4 4 4 4 3 3 3 3 3 3 3 4 4 4 4 4 4 4 4 4 4 4 4 5 5 5 5 5 5 5 5 5 5 5 5 5 5 5 5 5 6 6 6 6 6 6
3 3 3 3 3 3 3 3 3 3 3 3 3 3 3 2 3 3 3 4 4 4 4 4 4 4 4 4 4 4 4 4 4 4 4 4 4 4 4 4 5 5 4 5 5 5 5 5 6 6 6 6
3 3 3 3 3 3 3 2 2 3 3 3 3 3 2 2 3 2 2 2 2 2 3 3 3 3 4 4 4 4 4 4 4 4 3 4 4 4 4 4 4 4 5 5 5 5 5 5 5 6 6 6
3 3 3 3 3 3 2 3 2 2 2 2 2 2 2 2 2 2 1 1 1 1 2 2 2 3 3 3 3 3 3 3 4 4 3 4 4 4 4 4 4 4 5 5 5 5 5 5 5 6 6 6
2 2 2 2 2 2 2 2 2 2 2 2 2 2 2 2 2 1 1 1 1 0 1 1 1 2 2 2 2 3 3 3 4 4 4 4 4 4 5 5 5 5 5 5 5 5 5 5 5 6 6 6
2 2 2 2 1 1 1 1 1 1 2 2 2 2 2 2 1 1 1 1 1 1 1 1 1 1 1 1 1 2 2 2 3 3 3 3 4 4 4 4 4 5 4 4 4 4 4 5 5 5 5 6
2 2 2 1 1 1 1 1 1 1 1 1 2 2 2 1 1 1 1 1 1 1 1 1 1 1 1 1 1 1 1 1 1 1 2 2 2 3 3 3 3 4 4 4 4 4 4 4 5 5 5 5
2 2 2 1 1 1 1 1 1 1 1 1 1 1 1 1 1 1 1 1 1 1 0 0 0 0 0 1 1 0 -0 -0 -0 -0 -0 1 1 1 1 2 2 3 3 4 4 5 5 5 5 5 5 5
1 1 1 1 1 1 0 0 0 0 0 0 0 0 0 0 0 0 0 0 0 0 -0 -0 -0 -0 -0 0 -0 -0 -1 -1 -1 -1 -1 0 0 0 0 1 1 1 2 2 3 3 4 4 4 5 5 5
1 1 1 1 0 0 -0 -0 -0 -1 -1 -0 -0 -0 -0 -0 -0 -0 -0 -0 -0 -0 -1 -1 -1 -1 -1 -1 -1 -1 -1 -1 -1 -1 -1 -0 -0 -0 -0 -0 -0 0 1 1 1 1 2 3 3 4 4 4
-0 -0 0 -0 -0 -1 -1 -1 -1 -1 -1 -1 -1 -0 -1 -1 -1 -1 -1 -1 -1 -1 -1 -1 -1 -1 -1 -1 -1 -1 -1 -1 -1 -1 -1 -1 -1 -1 -1 -1 -1 -0 0 0 0 0 1 1 2 2 2 3
-1 -1 -1 -1 -1 -1 -1 -2 -2 -2 -1 -1 -1 -1 -1 -1 -1 -1 -1 -1 -1 -1 -1 -1 -1 -1 -1 -1 -1 -1 -1 -1 -1 -1 -1 -1 -1 -1 -1 -1 -1 -1 -1 -1 -1 -1 -1 -1 -0 -0 0 1
-2 -2 -2 -2 -2 -2 -2 -2 -2 -2 -2 -2 -1 -1 -2 -2 -2 -2 -1 -1 -1 -1 -1 -1 -1 -1 -1 -1 -1 -1 -1 -1 -1 -1 -1 -2 -2 -2 -2 -2 -2 -2 -2 -2 -2 -3 -3 -2 -2 -2 -1 -1
-2 -2 -2 -3 -3 -3 -3 -3 -3 -3 -3 -3 -2 -2 -2 -2 -2 -2 -2 -2 -2 -1 -1 -1 -1 -1 -1 -2 -1 -1 -1 -1 -2 -2 -2 -2 -2 -2 -2 -2 -2 -2 -2 -2 -2 -3 -3 -3 -3 -3 -2 -2
-3 -3 -3 -3 -3 -3 -3 -3 -3 -3 -3 -3 -3 -2 -2 -2 -2 -2 -2 -2 -2 -2 -2 -1 -1 -2 -2 -2 -2 -2 -2 -2 -2 -2 -2 -2 -2 -2 -1 -1 -2 -2 -2 -2 -2 -2 -2 -2 -3 -3 -3 -3
-3 -3 -3 -3 -3 -3 -3 -3 -3 -3 -3 -3 -2 -2 -2 -2 -2 -2 -2 -2 -2 -2 -2 -2 -2 -2 -2 -2 -2 -2 -2 -2 -2 -2 -2 -2 -2 -2 -2 -2 -2 -2 -2 -2 -2 -2 -2 -2 -2 -2 -2 -2
-3 -3 -3 -3 -3 -3 -3 -3 -3 -3 -3 -3 -2 -2 -2 -2 -2 -2 -2 -2 -2 -2 -2 -2 -2 -2 -2 -2 -2 -2 -2 -2 -3 -3 -3 -3 -3 -2 -2 -2 -2 -3 -3 -3 -2 -2 -2 -2 -2 -2 -2 -2
-3 -3 -3 -3 -3 -3 -3 -3 -3 -3 -3 -3 -3 -3 -3 -3 -3 -3 -3 -3 -3 -3 -3 -3 -3 -3 -3 -3 -3 -3 -3 -3 -3 -3 -3 -3 -3 -4 -3 -3 -3 -3 -3 -3 -3 -2 -2 -2 -2 -2 -1 -2
-2 -2 -2 -3 -3 -3 -3 -3 -4 -4 -4 -4 -4 -4 -4 -4 -4 -3 -3 -4 -3 -3 -3 -3 -4 -4 -4 -3 -3 -3 -3 -3 -4 -4 -4 -4 -4 -4 -4 -4 -4 -4 -3 -3 -3 -2 -2 -2 -2 -2 -1 -1
-2 -2 -2 -2 -3 -3 -3 -3 -4 -4 -5 -5 -5 -5 -5 -5 -5 -5 -5 -5 -4 -4 -4 -4 -4 -4 -4 -4 -4 -4 -4 -4 -5 -5 -5 -5 -4 -4 -4 -4 -4 -4 -4 -4 -3 -3 -3 -2 -2 -2 -2 -1
-2 -2 -3 -3 -3 -3 -3 -4 -4 -5 -5 -5 -5 -5 -5 -5 -6 -6 -6 -6 -6 -6 -6 -6 -5 -5 -5 -5 -5 -5 -5 -5 -5 -5 -5 -5 -5 -5 -5 -5 -5 -5 -5 -5 -4 -4 -3 -3 -3 -2 -2 -2
-3 -3 -3 -3 -4 -4 -4 -5 -5 -5 -5 -5 -6 -6 -6 -6 -6 -6 -6 -6 -7 -7 -7 -7 -6 -6 -6 -6 -6 -6 -7 -7 -6 -6 -6 -6 -7 -6 -6 -6 -5 -6 -6 -6 -5 -4 -4 -3 -3 -3 -3 -2
-4 -4 -4 -5 -5 -5 -6 -6 -6 -6 -6 -6 -6 -6 -7 -7 -7 -7 -7 -7 -7 -7 -7 -7 -7 -7 -7 -7 -7 -7 -7 -7 -7 -7 -8 -7 -7 -7 -7 -7 -6 -6 -7 -7 -7 -6 -5 -4 -4 -3 -3 -3
-5 -6 -6 -6 -6 -6 -6 -7 -7 -7 -7 -7 -7 -7 -8 -8 -8 -8 -8 -8 -8 -8 -8 -8 -8 -8 -8 -7 -7 -8 -8 -8 -8 -8 -8 -8 -8 -8 -7 -7 -7 -7 -8 -8 -8 -8 -7 -7 -6 -4 -4 -4
-6 -6 -7 -7 -7 -7 -7 -7 -7 -7 -7 -8 -8 -8 -8 -9 -9 -9 -10 -10 -10 -10 -10 -9 -9 -9 -9 -8 -8 -9 -9 -9 -9 -9 -9 -8 -9 -9 -8 -8 -8 -8 -8 -8 -9 -9 -9 -8 -8 -7 -6 -5
-7 -7 -7 -7 -8 -8 -8 -8 -8 -8 -8 -8 -8 -9 -9 -9 -10 -10 -10 -11 -11 -11 -11 -11 -11 -11 -10 -9 -9 -10 -10 -10 -10 -10 -9 -9 -9 -9 -10 -10 -9 -8 -8 -8 -9 -10 -11 -10 -9 -9 -9 -8
-8 -8 -8 -8 -8 -8 -8 -8 -8 -9 -9 -9 -10 -10 -10 -10 -11 -11 -11 -11 -11 -12 -12 -12 -12 -11 -11 -10 -11 -11 -11 -11 -11 -11 -10 -10 -10 -10 -11 -11 -10 -10 -9 -9 -9 -10 -11 -11 -11 -11 -11 -10
-8 -8 -8 -9 -8 -8 -9 -9 -9 -10 -11 -11 -11 -11 -11 -11 -11 -11 -12 -12 -12 -12 -13 -13 -12 -12 -12 -11 -12 -12 -12 -12 -12 -11 -11 -11 -11 -11 -11 -11 -11 -11 -10 -10 -9 -9 -10 -10 -10 -11 -11 -11
Height
1560 1560 1561 1561 1561 1561 1561 1560 1560 1560 1560 1561 1561 1561 1561 1561 1560 1560 1560 1560 1559 1559 1558 1558 1557 1556 1556 1556 1555 1555 1554 1553 1553 1553 1553 1552 1552 1551 1551 1550 1549 1549 1548 1549 1549 1549 1548 1547 1547 1547 1547 1546
1559 1560 1560 1560 1560 1560 1560 1560 1560 1561 1561 1561 1561 1561 1561 1560 1560 1559 1559 1559 1559 1558 1558 1557 1556 1556 1555 1555 1555 1554 1553 1552 1552 1552 1552 1552 1551 1551 1550 1549 1549 1548 1547 1547 1547 1547 1547 1547 1546 1546 1545 1545
1559 1559 1560 1560 1560 1560 1561 1561 1561 1561 1561 1561 1561 1561 1560 1560 1559 1559 1558 1558 1558 1558 1557 1556 1556 1555 1554 1554 1554 1553 1552 1552 1551 1551 1551 1551 1551 1550 1549 1549 1548 1547 1546 1546 1545 1545 1546 1546 1545 1544 1544 1543
1560 1560 1560 1561 1561 1561 1562 1561 1561 1561 1561 1561 1560 1560 1560 1559 1558 1558 1557 1557 1557 1557 1556 1556 1555 1554 1553 1553 1552 1552 1552 1551 1551 1551 1550 1550 1550 1549 1548 1548 1547 1546 1546 1545 1544 1544 1544 1544 1544 1544 1543 1542
1561 1561 1561 1561 1562 1562 1562 1561 1561 1561 1561 1560 1560 1560 1560 1559 1558 1557 1556 1556 1555 1555 1555 1554 1554 1553 1552 1552 1552 1551 1551 1551 1550 1550 1550 1549 1548 1548 1547 1546 1546 1546 1545 1544 1544 1543 1542 1542 1542 1542 1542 1541
1561 1562 1562 1562 1562 1562 1562 1561 1561 1561 1560 1560 1560 1560 1559 1558 1558 1556 1556 1555 1554 1553 1553 1553 1552 1552 1552 1551 1551 1551 1550 1550 1550 1549 1548 1547 1547 1546 1546 1545 1545 1545 1544 1544 1543 1542 1542 1541 1540 1540 1540 1540
1562 1562 1562 1562 1562 1562 1562 1561 1561 1560 1560 1559 1559 1559 1558 1558 1557 1556 1555 1555 1554 1553 1552 1552 1551 1551 1551 1550 1550 1549 1549 1549 1548 1548 1547 1546 1545 1545 1544 1544 1544 1543 1543 1542 1541 1541 1540 1540 1540 1539 1538 1538
1562 1562 1562 1562 1562 1561 1561 1560 1560 1559 1559 1558 1558 1558 1557 1557 1556 1556 1555 1555 1554 1553 1552 1551 1550 1550 1549 1549 1548 1548 1547 1546 1546 1546 1545 1544 1544 1543 1543 1543 1542 1542 1541 1540 1539 1539 1539 1538 1538 1538 1537 1536
1563 1562 1562 1562 1561 1561 1560 1560 1559 1558 1558 1558 1558 1558 1557 1556 1555 1554 1554 1553 1552 1551 1551 1550 1549 1549 1548 1548 1547 1546 1545 1545 1544 1543 1543 1542 1542 1541 1541 1541 1540 1540 1539 1539 1538 1538 1537 1537 1536 1536 1535 1535
1563 1562 1562 1562 1561 1561 1560 1559 1558 1557 1557 1557 1557 1557 1556 1556 1555 1554 1553 1552 1551 1550 1550 1549 1549 1548 1547 1547 1546 1545 1544 1543 1542 1542 1541 1541 1541 1540 1539 1539 1538 1538 1537 1537 1537 1536 1536 1535 1535 1535 1534 1533
1562 1562 1562 1562 1561 1560 1560 1558 1557 1557 1557 1557 1557 1556 1556 1555 1554 1553 1552 1552 1551 1550 1549 1548 1548 1547 1546 1546 1545 1544 1543 1542 1542 1541 1540 1540 1540 1539 1538 1538 1537 1536 1535 1535 1534 1534 1534 1534 1533 1533 1532 1532
1562 1562 1562 1561 1561 1560 1559 1558 1557 1557 1557 1557 1556 1555 1555 1554 1553 1552 1552 1551 1550 1549 1549 1548 1547 1546 1546 1545 1544 1544 1543 1542 1541 1540 1539 1539 1539 1538 1537 1536 1536 1535 1534 1533 1532 1531 1531 1531 1531 1531 1530 1530
1561 1561 1561 1561 1560 1560 1559 1558 1557 1556 1556 1555 1555 1554 1553 1553 1552 1551 1551 1550 1550 1549 1548 1547 1547 1546 1545 1544 1544 1542 1541 1540 1539 1539 1538 1538 1537 1537 1536 1535 1534 1534 1533 1532 1531 1529 1529 1528 1528 1527 1527 1528
1561 1561 1560 1560 1559 1559 1558 1558 1557 1556 1555 1554 1554 1553 1553 1552 1551 1551 1551 1550 1549 1548 1547 1546 1545 1545 1544 1543 1542 1541 1540 1539 1538 1537 1537 1536 1536 1535 1534 1533 1533 1532 1531 1530 1529 1528 1527 1526 1526 1525 1525 1525
1561 1560 1560 1559 1559 1558 1558 1557 1556 1554 1553 1553 1553 1553 1553 1551 1551 1550 1550 1549 1548 1547 1546 1545 1544 1543 1542 1540 1539 1539 1539 1538 1537 1536 1536 1535 1534 1533 1532 1531 1530 1529 1528 1527 1527 1526 1525 1524 1524 1523 1522 1522
1560 1560 1559 1559 1558 1558 1558 1557 1556 1554 1553 1553 1553 1553 1552 1551 1550 1550 1549 1548 1547 1546 1545 1544 1543 1542 1540 1538 1538 1537 1537 1536 1536 1535 1534 1533 1532 1531 1530 1529 1528 1527 1526 1525 1525 1524 1523 1523 1522 1521 1521 1519
1560 1559 1559 1558 1558 1557 1557 1557 1556 1555 1554 1553 1553 1553 1552 1550 1549 1549 1548 1546 1545 1544 1543 1542 1541 1540 1538 1537 1536 1536 1535 1534 1533 1533 1532 1531 1530 1529 1527 1526 1525 1525 1523 1523 1522 1522 1521 1521 1520 1519 1519 1518
1561 1560 1560 1559 1558 1557 1557 1556 1555 1554 1554 1553 1553 1552 1551 1549 1548 1547 1546 1544 1543 1542 1541 1540 1539 1538 1536 1535 1534 1533 1533 1532 1531 1530 1529 1528 1527 1525 1524 1523 1522 1522 1521 1520 1520 1519 1519 1518 1518 1517 1516 1515
1563 1562 1561 1560 1559 1558 1557 1556 1555 1554 1553 1552 1551 1550 1549 1548 1546 1545 1544 1542 1541 1540 1539 1538 1537 1536 1534 1533 1532 1531 1530 1529 1529 1528 1526 1525 1523 1522 1521 1520 1520 1519 1518 1517 1517 1516 1516 1515 1515 1514 1513 1513
1564 1563 1562 1561 1559 1558 1557 1555 1554 1552 1551 1550 1549 1548 1546 1545 1544 1543 1542 1540 1538 1538 1536 1535 1534 1533 1532 1530 1529 1529 1528 1527 1526 1525 1523 1523 1521 1520 1519 1518 1517 1517 1516 1514 1513 1513 1512 1511 1511 1510 1509 1509
1565 1563 1562 1560 1559 1557 1556 1554 1552 1551 1549 1548 1547 1545 1544 1542 1541 1540 1539 1537 1536 1535 1534 1532 1531 1530 1529 1528 1526 1526 1525 1524 1523 1522 1521 1520 1520 1518 1516 1515 1514 1513 1513 1511 1510 1509 1508 1508 1507 1506 1506 1505
1563 1562 1560 1559 1558 1556 1554 1553 1551 1549 1547 1546 1544 1543 1541 1539 1537 1536 1535 1534 1533 1532 1531 1529 1528 1527 1526 1525 1524 1523 1522 1522 1521 1520 1518 1517 1516 1516 1514 1513 1512 1510 1510 1508 1506 1505 1504 1504 1503 1502 1502 1501
1562 1560 1559 1557 1555 1554 1552 1551 1549 1547 1545 1544 1542 1541 1539 1537 1535 1534 1532 1531 1530 1529 1528 1527 1525 1524 1523 1522 1521 1520 1519 1519 1518 1517 1516 1514 1513 1513 1512 1510 1509 1508 1507 1505 1503 1501 1500 1500 1499 1498 1498 1497
1559 1557 1556 1554 1552 1551 1550 1548 1547 1545 1544 1542 1541 1539 1537 1535 1533 1532 1530 1529 1527 1526 1525 1523 1522 1521 1520 1519 1518 1517 1516 1515 1515 1513 1512 1511 1510 1509 1508 1507 1507 1506 1504 1501 1499 1498 1497 1496 1495 1494 1494 1493
1556 1554 1552 1551 1549 1548 1546 1545 1544 1542 1541 1539 1538 1536 1535 1533 1531 1529 1528 1526 1525 1523 1522 1520 1519 1518 1517 1517 1516 1514 1513 1512 1512 1511 1509 1508 1507 1505 1504 1503 1504 1503 1501 1498 1495 1494 1492 1492 1492 1491 1490 1490
1553 1552 1550 1548 1547 1545 1544 1543 1541 1539 1538 1536 1535 1533 1532 1530 1528 1526 1524 1523 1522 1520 1519 1517 1516 1515 1515 1515 1513 1512 1510 1510 1509 1508 1507 1505 1503 1502 1501 1500 1500 1501 1499 1496 1494 1491 1488 1487 1487 1487 1487 1487
1551 1550 1548 1547 1545 1543 1542 1540 1539 1537 1535 1533 1532 1530 1529 1527 1525 1523 1521 1520 1519 1517 1516 1514 1513 1512 1512 1512 1511 1509 1508 1507 1506 1505 1504 1502 1500 1499 1498 1498 1498 1498 1497 1494 1492 1490 1487 1484 1482 1481 1482 1483
1549 1548 1546 1545 1543 1541 1539 1538 1536 1534 1532 1531 1529 1527 1525 1524 1523 1521 1519 1518 1516 1515 1513 1511 1510 1509 1509 1509 1508 1506 1504 1503 1503 1502 1500 1499 1498 1496 1494 1494 1494 1495 1495 1494 1492 1490 1486 1484 1482 1479 1478 1477
1547 1545 1544 1542 1540 1538 1536 1534 1533 1531 1529 1527 1526 1524 1522 1521 1520 1518 1516 1515 1514 1513 1511 1508 1507 1506 1506 1506 1505 1503 1502 1500 1500 1499 1497 1497 1495 1494 1492 1491 1490 1490 1492 1492 1491 1490 1487 1485 1482 1479 1477 1474
1545 1543 1541 1539 1537 1535 1532 1531 1529 1527 1525 1523 1522 1520 1519 1518 1517 1516 1514 1513 1512 1510 1508 1506 1504 1504 1503 1503 1502 1500 1499 1498 1497 1496 1495 1494 1493 1492 1491 1489 1487 1486 1488 1489 1489 1489 1487 1486 1483 1479 1478 1476
1543 1541 1539 1537 1535 1533 1530 1528 1526 1524 1522 1520 1519 1518 1516 1516 1515 1513 1512 1510 1510 1508 1506 1504 1502 1501 1501 1500 1499 1497 1496 1495 1494 1493 1492 1491 1490 1489 1489 1487 1485 1484 1484 1484 1485 1485 1484 1483 1482 1480 1478 1477
Wind_Speed
11 11 10 10 9 8 8 6 4 3 3 3 3 3 4 4 5 6 6 6 7 7 8 8 9 10 10 10 9 9 10 10 8 7 7 7 7 7 8 8 8 8 7 4 2 2 4 5 4 5 6 6
10 9 8 7 6 5 3 1 3 4 4 4 4 5 5 6 7 8 8 7 7 7 7 8 9 11 11 11 10 10 11 11 10 9 8 8 8 8 8 8 8 9 9 8 6 4 3 4 5 6 6 7
6 4 2 2 2 2 2 4 4 5 5 6 7 7 8 9 9 10 10 8 6 6 7 8 10 11 12 13 12 11 11 12 11 11 10 9 8 8 8 8 8 9 10 10 10 8 6 5 5 6 8 8
2 2 2 2 3 3 4 5 5 6 6 7 8 9 9 10 11 12 12 11 9 8 8 10 11 12 13 14 13 13 12 12 12 12 11 10 9 9 9 9 9 9 10 10 10 11 10 9 7 7 8 8
3 3 4 4 4 4 4 5 6 7 7 8 8 8 8 10 11 13 14 14 14 14 13 14 13 13 14 14 14 14 13 12 12 12 12 11 11 10 10 10 9 9 10 11 11 11 12 12 11 10 9 9
2 3 3 4 4 4 4 5 6 7 8 9 9 9 8 10 12 13 14 15 17 18 18 18 17 16 15 15 14 13 13 12 12 11 12 12 12 11 11 11 11 11 11 11 10 11 11 11 13 13 13 11
0 1 3 3 4 4 4 5 6 8 8 9 10 9 9 10 10 10 12 13 15 17 19 19 18 17 16 15 15 14 13 13 12 11 12 12 12 12 11 11 11 11 12 12 12 12 12 11 12 13 14 13
2 1 2 3 4 5 6 7 7 8 9 9 9 9 9 9 8 7 8 10 12 14 16 17 17 16 16 16 17 16 15 15 15 13 13 13 13 13 13 12 11 11 12 12 13 14 14 13 13 13 14 14
1 0 1 1 2 3 5 6 6 8 10 10 10 10 10 9 9 9 9 9 10 13 15 15 15 15 16 16 17 18 17 17 18 17 16 15 15 15 14 14 14 13 13 12 12 13 14 14 14 14 14 14
4 3 3 2 3 3 3 4 6 8 10 11 11 11 10 10 10 11 11 10 12 15 16 16 17 17 16 15 16 17 17 17 18 19 19 17 16 17 17 17 17 16 15 14 12 12 13 13 13 13 14 14
5 6 6 5 4 4 4 5 8 9 10 11 11 10 9 9 10 11 11 12 13 15 16 17 18 18 17 16 14 14 15 16 17 19 20 18 17 18 19 19 19 19 18 18 16 15 14 14 13 13 13 13
6 6 6 6 6 5 5 6 6 7 7 8 9 8 8 8 9 10 11 11 13 14 15 16 16 16 17 16 15 15 16 16 16 18 20 19 18 20 21 22 21 21 20 21 20 20 18 18 17 15 14 14
6 5 5 5 6 5 4 4 4 4 5 6 8 8 7 6 6 8 9 10 12 13 14 14 15 15 15 15 14 15 16 16 18 19 21 21 21 22 24 24 23 22 21 21 21 21 21 20 21 20 19 18
7 6 5 5 4 4 3 2 3 4 6 6 6 6 6 6 6 7 8 9 11 13 15 15 16 17 16 16 16 17 17 18 19 21 22 22 23 24 25 25 24 23 23 22 21 20 21 22 23 23 23 22
7 6 6 5 5 4 2 1 1 4 5 5 4 4 7 9 10 10 11 12 14 15 16 17 18 18 19 19 19 19 19 20 21 22 23 24 25 26 27 26 25 24 24 23 21 21 22 23 24 25 25 25
9 9 8 7 5 4 2 1 1 3 5 7 7 8 10 12 14 15 16 17 18 18 19 19 19 18 19 21 21 21 21 21 22 22 23 24 26 27 27 27 25 25 24 23 21 21 22 24 25 25 25 26
9 9 9 8 6 5 3 2 3 5 7 9 10 12 14 16 18 19 20 22 22 21 21 21 19 19 19 21 21 21 22 23 23 24 25 26 27 28 27 27 26 25 24 23 22 23 24 25 25 24 24 26
8 7 7 6 4 3 3 4 6 9 11 12 14 15 16 19 20 21 22 23 24 23 22 22 20 19 20 21 22 22 23 24 24 24 26 26 27 27 26 26 26 25 25 25 25 26 26 25 25 25 26 27
8 7 6 6 6 6 8 9 11 13 15 16 17 18 19 21 22 22 23 24 25 24 23 23 21 20 21 22 22 22 22 23 23 23 25 25 26 26 25 25 25 25 26 26 26 26 26 26 26 26 27 27
7 7 8 9 10 11 12 14 15 17 18 19 20 21 22 23 24 23 23 24 24 24 23 23 22 21 22 22 22 22 22 22 23 23 24 24 24 25 25 25 25 25 26 27 27 27 27 27 27 27 27 27
10 10 11 12 13 14 15 16 18 19 20 21 23 24 25 26 26 25 25 25 24 24 23 23 23 22 22 23 23 23 23 23 23 23 23 23 22 24 25 26 26 26 27 28 28 28 28 27 27 27 26 27
15 15 16 17 17 18 18 18 19 21 22 23 24 26 27 28 28 27 26 26 25 24 23 23 23 22 23 23 23 23 23 23 23 22 23 24 23 23 25 26 27 27 27 28 28 29 28 27 27 27 27 27
19 19 20 20 20 20 20 20 20 21 23 24 25 26 27 28 29 28 27 26 26 25 23 23 22 23 23 23 23 23 23 22 22 22 22 23 24 24 24 25 26 26 26 27 28 29 29 28 28 27 27 27
23 24 24 24 24 24 23 23 23 23 24 25 25 26 27 28 28 28 27 26 25 24 23 23 23 23 23 22 22 22 22 22 22 22 23 23 24 25 25 24 24 23 24 27 29 29 29 28 28 27 27 26
26 27 27 27 27 27 26 26 26 26 27 27 28 28 29 29 28 27 26 25 24 24 23 23 23 23 23 21 21 22 22 22 22 22 22 23 23 24 25 25 23 21 23 26 28 28 29 28 27 26 25 24
26 26 27 27 27 27 27 27 27 28 29 30 31 31 31 30 29 27 26 25 24 24 23 23 24 24 23 21 20 22 22 21 21 21 21 22 24 24 24 25 23 21 21 23 25 27 31 30 27 25 23 21
24 25 25 26 26 27 28 28 29 30 31 32 33 33 32 30 27 26 25 24 23 23 23 24 25 25 23 21 21 22 22 22 21 21 21 22 24 24 24 24 22 20 18 21 24 24 25 26 27 28 23 17
25 25 26 27 28 29 30 31 31 33 33 33 34 33 31 28 25 24 23 22 22 22 23 24 25 26 25 22 21 23 23 22 21 21 22 22 22 24 25 25 23 20 17 18 19 18 19 20 21 21 18 19
27 28 29 30 31 32 34 35 35 35 35 34 33 32 29 25 23 21 21 21 21 21 22 24 26 26 25 24 23 23 23 23 22 21 22 21 22 22 23 25 25 23 19 17 16 14 16 16 13 15 20 27
29 30 31 33 35 37 38 38 37 35 34 33 30 28 26 23 21 20 20 20 20 20 22 24 25 25 25 24 23 23 23 22 22 22 21 20 21 22 21 23 26 25 21 19 17 15 15 14 15 21 25 24
29 30 31 33 36 38 39 37 35 32 30 29 27 26 25 22 20 19 19 19 19 19 21 22 24 25 24 23 23 23 23 22 21 21 21 20 21 21 21 21 23 24 23 21 19 17 19 21 21 23 22 20
Wind_Direction
133 127 124 123 122 121 120 120 135 201 246 270 289 298 313 324 326 327 329 337 341 342 341 334 330 323 320 320 319 317 313 312 316 324 329 328 324 319 321 322 324 325 325 326 295 267 276 278 268 254 251 254
145 135 128 128 127 127 139 178 257 280 299 303 309 318 324 326 325 322 322 329 334 341 340 332 328 322 318 316 316 316 313 312 314 318 320 321 318 316 317 319 322 322 322 323 321 312 296 295 295 285 274 268
162 155 146 145 178 218 252 275 288 301 307 312 319 323 329 331 328 322 317 321 323 327 330 326 323 319 317 314 314 315 313 312 312 313 314 315 314 314 316 318 321 321 322 322 322 321 317 312 302 295 294 290
185 199 211 209 227 244 263 281 292 301 308 317 320 325 338 335 328 324 317 318 317 313 315 318 319 317 315 312 313 313 311 311 310 311 311 312 312 314 316 317 319 320 319 318 318 319 319 319 312 300 297 296
207 206 222 232 243 260 276 290 295 300 308 309 310 323 336 327 324 327 324 325 323 316 314 316 316 316 314 311 312 311 309 308 308 310 310 310 310 311 313 314 315 315 312 310 311 314 316 317 315 311 303 298
199 208 234 241 251 267 274 286 293 298 304 304 309 321 326 324 328 331 330 331 325 319 317 318 317 316 315 312 311 311 307 305 306 308 307 307 307 308 309 310 311 310 306 303 305 308 309 312 312 311 309 305
0 230 250 263 273 283 282 286 296 301 305 309 316 324 324 324 329 331 329 325 318 316 315 316 317 317 317 315 314 312 308 305 302 303 303 302 303 304 303 305 307 307 307 307 309 310 309 310 309 306 306 305
321 320 313 332 324 320 314 308 311 306 302 305 311 314 311 309 312 316 317 316 312 312 313 315 318 318 318 319 317 314 311 308 303 299 301 303 303 302 302 303 304 306 311 314 314 314 313 313 312 308 305 304
271 171 326 333 324 322 313 310 308 297 293 296 301 303 303 300 298 298 299 302 302 303 308 311 313 315 318 320 318 315 313 312 309 305 305 309 309 307 309 311 311 312 313 314 314 313 312 313 312 310 307 306
220 223 209 215 256 269 272 279 274 274 282 290 296 299 301 300 296 294 292 291 292 296 301 307 310 313 314 315 315 314 314 315 313 311 310 312 315 317 318 318 317 316 314 312 311 308 307 308 309 308 306 304
216 216 205 207 225 234 237 246 255 267 279 287 295 302 308 304 296 292 290 289 290 293 298 305 311 313 312 311 310 310 313 314 312 310 307 310 317 319 318 317 317 317 316 314 313 310 309 307 306 306 304 303
203 204 205 207 207 210 219 235 253 271 281 287 295 309 317 307 293 287 288 291 292 294 299 304 309 312 312 312 312 310 310 308 305 304 302 308 315 314 314 314 315 315 314 315 315 313 313 312 309 307 305 304
166 172 183 187 190 193 203 229 250 267 280 293 300 310 319 312 294 287 291 295 298 301 302 305 307 309 311 312 310 304 302 300 298 297 298 305 308 308 311 311 310 308 307 310 311 310 311 312 312 311 309 307
145 149 155 153 154 164 178 216 257 269 275 286 296 311 326 326 318 313 315 313 313 313 311 309 306 305 305 302 297 292 292 292 291 291 294 299 300 302 305 304 303 302 303 306 306 306 308 309 311 311 310 309
128 127 127 130 134 142 147 159 287 297 292 290 301 327 334 328 325 326 328 325 322 321 319 315 310 306 301 295 292 290 290 289 287 288 290 291 293 296 299 299 299 300 302 303 303 304 306 307 308 308 308 308
112 114 114 115 115 111 102 97 11 348 330 324 329 333 332 327 324 326 325 324 323 322 320 318 314 308 299 293 290 289 288 286 285 286 285 286 287 290 292 292 293 293 293 294 296 297 298 299 300 302 303 303
111 116 119 116 111 105 88 44 1 349 340 336 333 328 326 323 321 324 323 321 321 321 320 319 316 310 299 291 289 287 285 284 284 284 284 284 284 285 286 285 284 284 283 284 285 284 286 288 289 292 294 295
96 99 104 101 93 82 43 5 341 332 329 327 324 322 320 319 319 322 322 320 319 320 320 318 316 312 302 293 290 288 285 283 283 284 285 285 284 283 282 282 282 281 281 280 280 280 281 281 280 282 283 285
71 61 52 37 18 5 352 342 330 325 323 320 319 318 317 316 317 320 321 319 317 319 319 317 315 311 304 298 295 292 289 288 287 286 285 285 285 285 284 283 283 282 282 281 280 281 281 280 279 277 277 279
36 22 12 3 354 347 341 335 326 322 320 319 318 318 318 317 316 318 320 318 316 318 317 315 314 310 305 301 298 296 295 294 292 290 288 288 288 287 287 286 285 283 282 283 283 283 282 281 280 279 278 278
353 346 342 338 334 330 330 329 325 322 320 319 319 319 319 318 317 318 319 317 316 317 316 314 312 309 304 301 299 299 298 297 296 295 293 292 288 286 286 286 285 284 283 284 284 283 282 280 280 280 280 279
333 330 327 324 323 321 322 324 324 322 320 320 320 321 320 318 317 317 317 315 314 314 312 310 309 305 302 299 299 300 299 298 297 296 294 291 288 284 283 284 285 285 285 286 285 283 283 282 282 281 281 282
324 322 320 318 317 316 317 319 322 322 321 322 322 322 321 318 317 316 315 313 312 311 309 306 303 300 298 298 299 299 297 296 295 293 290 288 287 285 282 282 284 286 288 287 285 285 285 285 284 284 286 287
320 318 317 317 316 316 318 319 320 322 321 321 322 323 322 319 317 315 313 312 310 310 307 304 300 297 296 297 298 297 294 293 291 291 290 289 288 286 283 282 283 287 289 287 285 285 285 285 286 287 288 288
320 319 318 319 319 319 321 322 322 322 322 323 323 325 324 320 319 315 312 311 310 309 307 303 299 297 296 297 297 295 293 292 291 291 291 290 287 285 284 284 285 287 287 286 287 287 286 284 285 287 287 288
322 322 322 322 323 323 323 325 325 325 325 326 326 327 326 323 321 317 313 312 310 308 307 303 300 298 298 299 298 294 293 292 292 291 289 286 283 282 282 284 286 288 288 287 289 292 293 293 291 286 286 287
326 327 327 327 327 327 326 327 328 327 327 327 327 327 326 324 321 317 314 313 312 309 308 304 301 300 301 303 300 296 295 293 292 291 287 284 284 284 283 283 284 285 286 286 291 295 295 299 301 297 295 286
331 331 331 330 330 329 328 328 328 328 327 326 326 326 324 324 321 317 313 313 312 310 308 305 302 302 304 306 303 300 299 297 295 292 288 287 287 286 286 286 285 282 280 283 291 297 297 300 302 299 302 292
332 333 332 332 331 330 329 329 328 327 326 325 325 324 323 324 321 316 312 310 310 308 305 303 302 303 306 308 306 304 303 301 299 295 291 291 288 286 288 289 288 286 284 280 277 281 294 304 300 292 301 302
330 332 333 333 333 332 331 329 328 327 324 323 324 323 322 323 321 316 310 308 308 305 302 300 300 302 306 308 308 307 306 304 303 298 296 294 290 288 289 288 289 289 287 281 270 262 267 274 279 290 301 305
328 329 331 332 332 332 331 327 325 324 321 321 322 321 321 322 321 318 312 309 309 305 301 299 299 302 305 307 308 308 307 305 304 302 300 297 293 293 292 290 291 292 291 286 277 265 255 252 255 271 287 296